This demonstration page uses our WeatherBlox Daily Observations layout. Learn more.

38.80484, -77.04692

Hourly Observations for September 4, 2016

Temp ( °F °C ) Dew Point ( °F °C ) Humidity (%) Winds ( mph kmh ) Pressure ( in mb ) Visibility ( mi km ) Precip ( " mm )
12:52 am 00:52 Cloudy 72 22.2 58 14.4 61 61 ENE 8 13 30.16 1022 10 16.0934 0 0
1:52 am 01:52 Cloudy 72 22.2 58 14.4 61 61 ENE 8 13 30.17 1022 10 16.0934 0 0
2:52 am 02:52 Cloudy 71 21.7 57 13.9 61 61 NE 8 13 30.18 1022 10 16.0934 0 0
3:52 am 03:52 Cloudy 71 21.7 59 15 66 66 NNE 6 9 30.18 1022 10 16.0934 0 0
4:52 am 04:52 Cloudy 71 21.7 59 15 66 66 NNE 7 11 30.19 1022 10 16.0934 0 0
5:52 am 05:52 Mostly Cloudy 69 20.6 60 15.6 73 73 NNW 5 7 30.2 1023 10 16.0934 0 0
6:52 am 06:52 Mostly Cloudy 69 20.6 59 15 70 70 N 9 15 30.21 1023 10 16.0934 0 0
7:52 am 07:52 Mostly Cloudy 70 21.1 57 13.9 64 64 NNE 12 19 30.23 1024 10 16.0934 0 0
8:52 am 08:52 Mostly Cloudy 72 22.2 56 13.3 57 57 NNE 10 17 30.24 1024 10 16.0934 0 0
9:52 am 09:52 Mostly Cloudy 75 23.9 55 12.8 50 50 NNE 13 20 30.24 1024 10 16.0934 0 0
10:52 am 10:52 Mostly Cloudy 76 24.4 56 13.3 50 50 NNE 10 17 30.24 1024 10 16.0934 0 0
11:52 am 11:52 Mostly Cloudy 79 26.1 55 12.8 44 44 NNE 14 22 30.24 1024 10 16.0934 0 0
12:52 pm 12:52 Mostly Cloudy 78 25.6 56 13.3 47 47 ENE 10 17 30.23 1024 10 16.0934 0 0
1:52 pm 13:52 Mostly Cloudy 81 27.2 50 10 34 34 NE 13 20 30.22 1023 10 16.0934 0 0
2:52 pm 14:52 Mostly Cloudy 82 27.8 52 11.1 35 35 NE 10 17 30.21 1023 10 16.0934 0 0
3:52 pm 15:52 Partly Cloudy 83 28.3 48 8.9 30 30 NNE 12 19 30.2 1023 10 16.0934 0 0
4:52 pm 16:52 Partly Cloudy 82 27.8 53 11.7 37 37 NE 6 9 30.2 1023 10 16.0934 0 0
5:52 pm 17:52 Mostly Cloudy 80 26.7 56 13.3 44 44 NE 10 17 30.19 1022 10 16.0934 0 0
6:52 pm 18:52 Partly Cloudy 77 25 57 13.9 50 50 E 12 19 30.2 1023 10 16.0934 0 0
7:52 pm 19:52 Partly Cloudy 75 23.9 57 13.9 54 54 E 5 7 30.21 1023 10 16.0934 0 0
8:52 pm 20:52 Mostly Clear 74 23.3 56 13.3 54 54 E 5 7 30.23 1024 10 16.0934 0 0
9:52 pm 21:52 Clear 73 22.8 57 13.9 57 57 ENE 6 9 30.24 1024 10 16.0934 0 0
10:52 pm 22:52 Clear 73 22.8 58 14.4 59 59 Calm 30.24 1024 10 16.0934 0 0
11:52 pm 23:52 Clear 71 21.7 58 14.4 63 63 Calm 30.24 1024 10 16.0934 0 0

Powered by AerisWeather